Regional Weather Roundup
Issued by NWS

Home | Current Version | Previous Version | Text Only | Print | Product List | Glossary Off
Versions: 1 2 3 4 5 6 7 8 9 10 11 12 13 14 15 16 17 18 19 20 21 22 23 24 25 26 27 28 29 30 31 32 33 34 35 36 37 38 39 40 41 42 43 44 45 46 47 48 49 50

000
ASUS45 KTFX 041810
RWRMT
MONTANA REGIONAL WEATHER ROUNDUP
NATIONAL WEATHER SERVICE GREAT FALLS MT
1200 PM MDT SAT JUL 04 2015

NOTE: "FAIR" INDICATES FEW OR NO CLOUDS BELOW 12000 FEET WITH NO
SIGNIFICANT WEATHER AND/OR OBSTRUCTIONS TO VISIBILITY.

MTZ001>007-043-041900-
WEST OF THE DIVIDE

CITY           SKY/WX    TMP DP  RH WIND       PRES   REMARKS
KALISPELL      CLEAR     87  45  23 CALM      29.81F
MISSOULA       SUNNY     84  44  24 CALM      29.87F
BUTTE          SUNNY     80  32  17 VRB3      30.04F
MULLAN PASS    SUNNY     75  42  30 VRB6      30.06S
DEER LODGE       N/A     82  43  24 CALM      30.00F
EUREKA           N/A     88  43  20 N6        29.80F
HAMILTON         N/A     90  41  18 S2        29.88F
LIBBY            N/A     88  43  20 NW6       29.79F
PLAINS           N/A     89  53  29 CALM      29.82F
RONAN            N/A     90  45  21 SW3       29.90F
THOMPSON FALLS   N/A     90  45  21 SW5       29.85F
$$

MTZ008-052>055-041900-
SOUTHWEST MONTANA

CITY           SKY/WX    TMP DP  RH WIND       PRES   REMARKS
BOZEMAN        SUNNY     85  44  23 VRB3      29.96F
DILLON         SUNNY     84  34  16 MISG      30.00F
W YELLOWSTONE  SUNNY     79  36  21 S6        30.10F
THREE FORKS      N/A     86  50  28 E3        29.94F
$$

MTZ009-010-012-014-046-048-049-054-041900-
EAST SLOPES AND CENTRAL MONTANA

CITY           SKY/WX    TMP DP  RH WIND       PRES   REMARKS
CUT BANK       SUNNY     73  50  44 N14G21    29.94F
GREAT FALLS    SUNNY     79  52  38 NW9       29.91R
MALMSTROM AFB  SUNNY     79  53  40 N13       29.91S
HELENA         SUNNY     91  41  17 SW13G22   29.87F
CONRAD           N/A     75  65  71 NW10      29.95F
$$

MTZ011-013-016-021-045-047-050-051-041900-
NORTH CENTRAL MONTANA

CITY           SKY/WX    TMP DP  RH WIND       PRES   REMARKS
HAVRE          SUNNY     85  54  34 N12G17    29.82R
LEWISTOWN      SUNNY     90  47  22 NW12G18   29.89S
CHINOOK          N/A     81  57  44 N12G18    29.80S
FORT BENTON      N/A     81  55  41 W8        29.86S
$$

MTZ017>020-022>027-061-062-041900-
NORTHEAST MONTANA

CITY           SKY/WX    TMP DP  RH WIND       PRES   REMARKS
GLASGOW        SUNNY     91  54  28 NW12      29.69F
JORDAN           N/A     94  50  22 W15       29.73S HX  91
SIDNEY         SUNNY     90  61  37 SE8       29.72F
WOLF POINT     SUNNY     94  59  31 NW7       29.68F HX  93
PLENTYWOOD       N/A     84  64  51 S6        29.72F
POPLAR           N/A     90  63  40 N5        29.70S HX  90
SCOBEY           N/A     86  59  39 N10       29.74S
$$

MTZ028>42-056>058-041900-
SOUTHCENTRAL AND SOUTHEAST MONTANA

CITY           SKY/WX    TMP DP  RH WIND       PRES   REMARKS
BAKER          SUNNY     89  54  30 S9        29.81S
BILLINGS       MOSUNNY   93  46  19 NW9       29.86F
LIVINGSTON     SUNNY     89  44  20 SW16G22   29.93F
MILES CITY     SUNNY     94  55  26 VRB3      29.75F HX  92
EKALAKA          N/A     90  52  27 N2        29.84F
FORSYTH          N/A     93  52  24 CALM      29.75F HX  90
LAUREL           N/A     93  47  20 NW3       29.85F
ROUNDUP          N/A     94  43  17 NW10      29.75F HX  90
$$

REGIONAL REPORTS...DAKOTAS

CITY           SKY/WX    TMP DP  RH WIND       PRES   REMARKS
WILLISTON      SUNNY     88  64  44 SE8       29.71F
MINOT          SUNNY     85  64  49 S14       29.73F HAZE
DICKINSON      SUNNY     85  66  53 S7        29.77F
BEACH          FAIR      86  59  39 CALM      29.79S
CROSBY         FAIR      81  73  78 S7        29.72S
BISMARCK       SUNNY     83  68  60 SE13      29.78F
GRAND FORKS    CLOUDY    82  67  60 S12       29.81F HAZE
FARGO          MOSUNNY   82  67  60 S10G20    29.83F
BUFFALO SD       N/A     86  61  42 SW9       29.76F
RAPID CITY     SUNNY     86  63  45 NW5       29.84S
$$

REGIONAL REPORTS...WYOMING/IDAHO/WASHINGTON

CITY           SKY/WX    TMP DP  RH WIND       PRES   REMARKS
GILLETTE       SUNNY     89  50  26 VRB3      29.92S
SHERIDAN       SUNNY     92  47  21 SE6       29.87F
BUFFALO WY     SUNNY     87  48  25 CALM      29.96F
CODY           SUNNY     88  41  19 E7        29.96F
YELLOWSTONE LA   N/A     71  48  43 VRB3      30.22F
IDAHO FALLS    SUNNY     81  57  43 W6        29.98F
SALMON         SUNNY     81  43  26 CALM      29.92F
BOISE          MOSUNNY   90  45  21 NW7       29.87S
SPOKANE        MOSUNNY   85  48  27 S8        29.83F
$$

REGIONAL REPORTS...ALBERTA

CITY           SKY/WX    TMP DP  RH WIND       PRES   REMARKS
EDMONTON       SUNNY     68  43  40 NW9       29.93S
CALGARY        PTSUNNY   72  46  40 E9        29.94F
LETHBRIDGE     MOSUNNY   72  50  46 VRB2      29.93F
MEDICINE HAT   MOSUNNY   79  48  34 N12       29.87F
WATERTON GATE    N/A     68  52  56 N3          N/A
CARDSTON         N/A     68  52  56 E5          N/A
MILK RIVER       N/A     72  52  49 N13G20      N/A
ONEFOUR          N/A     79  48  34 NE8         N/A
$$

REGIONAL REPORTS...SASKATCHEWAN

CITY           SKY/WX    TMP DP  RH WIND       PRES   REMARKS
SWIFT CURRENT  SUNNY     73  54  49 NE9G20    29.84S HAZE
REGINA         CLOUDY    72  59  64 N17G25    29.77R
SASKATOON      CLOUDY    77  50  38 NW14G21   29.80F SMOKE
CYPRESS HILLS    N/A     68  50  52 NE12G20     N/A
$$


USA.gov is the U.S. government's official web portal to all federal, state and local government web resources and services.